Flag for Estonia Weather past 2 weeks in Tallinn, Estonia

Now
41 °F

Passing clouds.


Feels Like: 34 °F
Forecast: 38 / 50 °F
Wind: 12 mph from Northwest

Location: Tallinn

Current Time: Sep 24, 2014 at 2:05:36 AM

Latest Report: Sep 24, 2014 at 1:20 AM


Visibility: N/A

Pressure: 29.71 "Hg

Humidity: 57%

Dew point: 27 °F

Location of TallinnLocation

Historic Weather in Tallinn — Graph

°F

Tallinn temperature yesterday

Maximum temperature yesterday: 46 °F (at 12:20 AM)
Minimum temperature yesterday: 39 °F (at 9:50 AM)
Average temperature yesterday: 42 °F

Past Weeks' High & Low Weather Summary

 TemperatureHumidityPressure
High68 °F (Sep 19, 2:20 PM)100% (Sep 9, 6:20 AM)30.45 "Hg (Sep 9, 6:20 AM)
Low37 °F (Sep 16, 6:50 AM)46% (Sep 16, 2:50 PM)29.53 "Hg (Sep 22, 5:50 PM)
Average54 °F87%30.12 "Hg
* Reported Sep 9 12:20 AM — Sep 24 12:50 AM, Tallinn, Weather by CustomWeather, © 2014

Note: Actual official high and low records may vary slightly from our data, if they occured in-between our weather recording intervals... More about our weather records

Advertising

Tallinn weather history for previous 24 hours

 ConditionsComfort  
Time TempWeatherWind HumidityBarometerVisibility
12:50 AM
Sep 24
43 °FPassing clouds.13 mph49%29.71 "HgN/A
12:20 AM43 °FPassing clouds.9 mph49%29.71 "HgN/A
11:50 PM
Sep 23
41 °FPassing clouds.13 mph53%29.74 "HgN/A
11:20 PM43 °FPassing clouds.14 mph49%29.71 "HgN/A
10:50 PM43 °FPassing clouds.16 mph53%29.71 "HgN/A
10:20 PM43 °FPassing clouds.14 mph53%29.71 "HgN/A
9:50 PM43 °FPassing clouds.14 mph53%29.71 "HgN/A
9:20 PM41 °FPassing clouds.16 mph61%29.74 "HgN/A
8:50 PM43 °FPassing clouds.12 mph57%29.71 "HgN/A
8:20 PM41 °FPassing clouds.12 mph66%29.74 "HgN/A
7:50 PM41 °FBroken clouds.13 mph66%29.71 "HgN/A
7:20 PM43 °FPartly sunny.14 mph61%29.71 "HgN/A
6:50 PM43 °FPartly sunny.14 mph61%29.71 "HgN/A
6:20 PM43 °FPartly sunny.14 mph61%29.71 "HgN/A
5:50 PM41 °FPartly sunny.15 mph70%29.71 "HgN/A
5:20 PM43 °FPartly sunny.15 mph66%29.68 "HgN/A
4:50 PM43 °FOvercast.10 mph66%29.68 "HgN/A
4:20 PM43 °FOvercast.13 mph71%29.68 "HgN/A
3:50 PM43 °FOvercast.14 mph71%29.68 "HgN/A
3:20 PM41 °FOvercast.14 mph76%29.68 "HgN/A
2:50 PM41 °FOvercast.15 mph81%29.65 "HgN/A
2:20 PM41 °FOvercast.14 mph81%29.65 "HgN/A
1:50 PM41 °FLight rain. Overcast.13 mph81%29.65 "HgN/A
1:20 PM41 °FMostly cloudy.13 mph81%29.65 "HgN/A
12:50 PM41 °FSprinkles. Broken clouds.13 mph87%29.62 "HgN/A
12:20 PM41 °FSprinkles. More clouds than sun.12 mph81%29.62 "Hg6 mi
11:50 AM41 °FSprinkles. More clouds than sun.12 mph81%29.62 "HgN/A
11:20 AM41 °FSprinkles. Partly sunny.12 mph81%29.62 "HgN/A
10:50 AM41 °FSprinkles. Broken clouds.14 mph81%29.62 "HgN/A
10:20 AM41 °FSprinkles. Broken clouds.14 mph87%29.59 "HgN/A
9:50 AM39 °FLight rain. Overcast.13 mph93%29.59 "Hg6 mi
9:20 AM41 °FLight rain. Overcast.14 mph81%29.59 "HgN/A
8:50 AM41 °FOvercast.14 mph81%29.59 "HgN/A
8:20 AM41 °FOvercast.13 mph81%29.59 "HgN/A
7:50 AM41 °FOvercast.15 mph81%29.59 "HgN/A
7:20 AM41 °FOvercast.13 mph87%29.56 "HgN/A
6:50 AM41 °FOvercast.14 mph87%29.56 "HgN/A
6:20 AM41 °FDrizzle. Overcast.13 mph87%29.56 "HgN/A
5:50 AM41 °FDrizzle. Mostly cloudy.13 mph93%29.56 "Hg6 mi
5:20 AM41 °FDrizzle. Mostly cloudy.13 mph93%29.56 "Hg6 mi
4:50 AM41 °FMostly cloudy.13 mph93%29.59 "HgN/A
4:20 AM41 °FLight rain. Low clouds.13 mph100%29.59 "Hg6 mi
3:50 AM41 °FMostly cloudy.13 mph100%29.56 "HgN/A
3:20 AM43 °FDrizzle. Mostly cloudy.12 mph93%29.56 "Hg5 mi
2:50 AM43 °FDrizzle. Mostly cloudy.12 mph93%29.59 "Hg5 mi
2:20 AM43 °FDrizzle. Mostly cloudy.13 mph100%29.59 "Hg5 mi
Weather by CustomWeather, © 2014

See weather overviewHow to use our weather pages